FW2418 Weather Reports


Display with metric or nautical units.
time (UTC)temp
F
wind
direction
speed
MPH
gust
MPH
rain 1hr
in
rain 24hr
in
rain mn
in
humidity
%
barometer
mb
20260509181131 91 271 2.0 5.0 0.00 0.80 0.00 55 1010.0
20260509180130 92 281 2.0 7.0 0.00 0.80 0.00 55 1010.0
20260509175129 91 182 3.0 7.0 0.00 0.80 0.00 56 1010.0
20260509174128 91 248 2.0 5.0 0.00 0.80 0.00 56 1010.3
20260509173127 91 307 1.0 5.0 0.00 0.80 0.00 57 1010.3
20260509172055 91 275 3.0 8.0 0.00 0.80 0.00 57 1010.0
20260509171054 92 220 1.0 8.0 0.00 0.80 0.00 57 1010.0
20260509170053 90 200 1.0 4.0 0.00 0.80 0.00 60 1010.3
20260509165052 90 193 2.0 4.0 0.00 0.80 0.00 60 1010.3
20260509164051 90 281 1.0 4.0 0.00 0.80 0.00 60 1010.3
20260509163050 90 243 1.0 6.0 0.00 0.80 0.00 62 1010.6
20260509162049 90 271 1.0 7.0 0.00 0.80 0.00 64 1010.6
20260509161048 89 173 2.0 7.0 0.00 0.80 0.00 64 1010.6
20260509160047 88 248 1.0 7.0 0.00 0.80 0.00 65 1010.6
20260509155046 88 221 1.0 7.0 0.00 0.80 0.00 65 1010.6
20260509154045 88 250 1.0 8.0 0.00 0.80 0.00 66 1011.0
20260509153044 88 206 2.0 7.0 0.00 0.80 0.00 67 1011.0
20260509152043 86 224 2.0 7.0 0.00 0.80 0.00 69 1011.0
20260509151042 85 247 1.0 5.0 0.00 0.80 0.00 75 1011.3
20260509145939 83 181 2.0 6.0 0.00 0.80 0.00 85 1011.3
20260509144907 80 180 1.0 6.0 0.00 0.80 0.00 95 1011.3
20260509143906 79 123 2.0 6.0 0.00 0.80 0.00 96 1011.3
20260509142905 78 159 2.0 6.0 0.00 0.80 0.00 96 1011.3
20260509141904 78 203 1.0 5.0 0.00 0.80 0.00 96 1011.0
20260509140832 78 159 2.0 5.0 0.00 0.80 0.00 97 1011.0
20260509135831 77 173 3.0 5.0 0.00 0.80 0.00 97 1010.9
20260509134830 77 188 2.0 5.0 0.00 0.80 0.00 97 1010.9
20260509133829 77 126 1.0 4.0 0.00 0.80 0.00 98 1010.6
20260509132828 77 162 2.0 3.0 0.00 0.80 0.00 98 1010.9
20260509131827 76 101 2.0 3.0 0.00 0.80 0.00 98 1010.9
20260509130826 76 146 1.0 1.0 0.00 0.80 0.00 99 1010.9
20260509125825 75 121 0.0 2.0 0.00 0.80 0.00 99 1010.9
20260509124824 75 113 1.0 3.0 0.00 0.80 0.00 99 1010.9
20260509123823 74 205 0.0 3.0 0.00 0.80 0.00 100 1010.9
20260509122751 74 18 0.0 1.0 0.00 0.80 0.00 100 1010.9
20260509121750 74 115 1.0 1.0 0.00 0.80 0.00 100 1010.9
20260509120750 74 147 0.0 1.0 0.00 0.80 0.00 100 1010.6
20260509115748 72 148 0.0 0.0 0.00 0.80 0.00 100 1010.6
20260509114747 72 148 0.0 1.0 0.00 0.80 0.00 100 1010.6
20260509113747 71 148 0.0 1.0 0.00 0.80 0.00 100 1010.6
20260509112746 71 19 0.0 1.0 0.00 0.80 0.00 100 1010.6
20260509111744 71 19 0.0 0.0 0.00 0.80 0.00 100 1010.6
20260509110743 71 19 0.0 1.0 0.00 0.80 0.00 100 1010.6
20260509105743 71 19 0.0 1.0 0.00 0.80 0.00 100 1010.6
20260509104742 71 15 0.0 0.0 0.00 0.80 0.00 100 1010.6
20260509103741 71 15 0.0 1.0 0.00 0.80 0.00 100 1010.6
20260509102740 71 347 0.0 1.0 0.00 0.80 0.00 100 1010.6
20260509101740 71 347 0.0 1.0 0.00 0.80 0.00 100 1010.6
20260509100708 71 347 0.0 1.0 0.00 0.80 0.00 100 1010.3
20260509095706 71 347 0.0 1.0 0.00 0.80 0.00 100 1010.6
20260509094634 71 347 0.0 1.0 0.00 0.80 0.00 100 1010.3
20260509093633 71 354 0.0 0.0 0.00 0.80 0.00 100 1010.3
20260509092633 71 354 0.0 1.0 0.00 0.80 0.00 100 1010.3
20260509091631 71 354 0.0 1.0 0.00 0.80 0.00 100 1010.3
20260509090631 71 79 0.0 0.0 0.00 0.80 0.00 100 1010.3
20260509085630 71 79 0.0 1.0 0.00 0.80 0.00 100 1010.6
20260509084558 71 79 0.0 1.0 0.00 0.80 0.00 100 1010.6
20260509083557 71 81 0.0 1.0 0.00 0.80 0.00 100 1010.3
20260509082525 71 34 0.0 1.0 0.00 0.80 0.00 100 1010.6
20260509081452 71 15 0.0 1.0 0.00 0.80 0.00 100 1010.6
20260509080451 71 32 0.0 1.0 0.00 0.80 0.00 100 1010.6
20260509075451 71 103 0.0 1.0 0.00 0.80 0.00 100 1010.6
20260509074419 71 18 0.0 1.0 0.00 0.80 0.00 100 1010.6
20260509073418 71 74 1.0 2.0 0.00 0.80 0.00 100 1010.6
20260509072416 71 16 0.0 2.0 0.00 0.80 0.00 100 1010.6
20260509071415 70 43 1.0 3.0 0.00 0.80 0.00 100 1011.0
20260509070415 70 1 1.0 4.0 0.00 0.80 0.00 100 1011.0
20260509065414 70 36 2.0 4.0 0.00 0.80 0.00 100 1011.3
20260509064342 70 356 1.0 1.0 0.00 0.80 0.00 100 1011.3
20260509063341 70 77 1.0 1.0 0.00 0.80 0.00 100 1011.3
20260509062340 70 24 1.0 1.0 0.00 0.80 0.00 100 1011.3
20260509061339 70 32 0.0 1.0 0.00 0.80 0.00 100 1010.9
20260509060338 70 346 0.0 0.0 0.00 0.80 0.00 100 1011.3
20260509055337 70 344 0.0 1.0 0.00 0.80 0.00 100 1011.3
20260509054336 71 346 0.0 1.0 0.00 0.80 0.00 100 1011.3
20260509053335 71 6 0.0 0.0 0.00 0.80 0.00 100 1011.3
20260509052334 70 27 0.0 0.0 0.00 0.80 0.00 100 1011.6
20260509051333 70 27 0.0 0.0 0.00 0.80 0.00 100 1011.6
20260509050332 70 27 0.0 0.0 0.00 0.80 0.00 99 1012.0
20260509045331 70 27 0.0 0.0 0.00 0.80 0.00 99 1012.0
20260509044330 71 27 0.0 0.0 0.00 0.80 0.00 99 1012.0
20260509043258 71 27 0.0 0.0 0.00 0.80 0.00 99 1012.0
20260509042257 71 27 0.0 0.0 0.00 0.80 0.00 99 1012.0
20260509041257 71 27 0.0 0.0 0.00 0.80 0.00 99 1012.3
20260509040256 71 27 0.0 0.0 0.00 0.80 0.00 99 1012.3
20260509035255 71 28 0.0 0.0 0.00 0.80 0.80 99 1012.3
20260509034254 71 27 0.0 0.0 0.00 0.80 0.80 99 1012.3
20260509033253 71 58 0.0 0.0 0.00 0.80 0.80 99 1012.3
20260509032252 71 75 0.0 0.0 0.00 0.80 0.80 99 1012.3
20260509031251 71 75 0.0 0.0 0.00 0.80 0.80 99 1012.3
20260509030250 71 75 0.0 1.0 0.00 0.80 0.80 99 1012.3
20260509025249 71 75 1.0 1.0 0.00 0.80 0.80 99 1012.3
20260509024249 71 319 0.0 1.0 0.00 0.80 0.80 99 1012.3
20260509023248 71 84 0.0 0.0 0.00 0.80 0.80 99 1012.3
20260509022247 71 32 0.0 1.0 0.03 0.80 0.80 99 1012.3
20260509021246 72 32 0.0 2.0 0.11 0.80 0.80 99 1012.0
20260509020245 72 1 1.0 1.0 0.22 0.80 0.80 99 1011.6
20260509015244 72 84 1.0 1.0 0.24 0.80 0.80 99 1011.6
20260509014243 72 33 1.0 2.0 0.24 0.80 0.80 99 1011.6
20260509013242 72 32 0.0 2.0 0.25 0.80 0.80 99 1011.6
20260509012241 72 323 1.0 2.0 0.57 0.76 0.76 98 1011.6
20260509011209 72 316 0.0 5.0 0.68 0.68 0.68 98 1011.6
20260509010137 72 106 1.0 5.0 0.57 0.57 0.57 98 1011.3
20260509005136 71 15 2.0 5.0 0.56 0.56 0.56 98 1010.9
20260509004135 71 132 1.0 11.0 0.56 0.56 0.56 97 1010.6
20260509003103 72 72 3.0 18.0 0.54 0.54 0.54 96 1010.6
20260509002102 77 26 8.0 19.0 0.05 0.05 0.11 87 1011.6
20260509001101 78 303 2.0 7.0 0.00 0.00 0.00 82 1011.0
20260509000100 79 56 2.0 9.0 0.00 0.00 0.00 82 1010.3
20260508235028 81 39 3.0 9.0 0.00 0.00 0.00 79 1009.9
20260508234027 82 50 4.0 7.0 0.00 0.00 0.00 77 1010.3
20260508233026 82 52 2.0 8.0 0.00 0.00 0.00 77 1009.6
20260508232025 83 75 2.0 6.0 0.00 0.00 0.00 78 1009.6
20260508230952 83 38 2.0 8.0 0.00 0.00 0.00 78 1009.6
20260508225920 83 59 2.0 9.0 0.00 0.00 0.00 78 1009.3
20260508224919 84 75 2.0 6.0 0.00 0.00 0.00 77 1008.9
20260508223848 84 100 1.0 7.0 0.00 0.00 0.00 77 1008.6
20260508222847 85 69 2.0 8.0 0.00 0.00 0.00 76 1008.6
20260508221846 85 72 2.0 8.0 0.00 0.00 0.00 75 1008.6
20260508220845 85 111 2.0 8.0 0.00 0.00 0.00 74 1008.3
20260508215845 86 88 2.0 10.0 0.00 0.00 0.00 74 1008.3
20260508214843 87 74 2.0 9.0 0.00 0.00 0.00 72 1008.6
20260508213843 88 82 2.0 8.0 0.00 0.00 0.00 70 1008.6
20260508212811 88 54 3.0 8.0 0.00 0.00 0.00 69 1008.6
20260508211810 88 118 1.0 9.0 0.00 0.00 0.00 71 1008.6
20260508210809 88 96 2.0 7.0 0.00 0.00 0.00 70 1008.6
20260508205808 88 56 3.0 8.0 0.00 0.00 0.00 69 1008.6
20260508204807 89 44 2.0 8.0 0.00 0.00 0.00 68 1008.6
20260508203806 90 118 2.0 5.0 0.00 0.00 0.00 60 1008.6
20260508202734 90 51 1.0 5.0 0.00 0.00 0.00 60 1008.9
20260508201733 90 48 2.0 6.0 0.00 0.00 0.00 61 1008.9
20260508200732 91 59 2.0 7.0 0.00 0.00 0.00 61 1008.9
20260508195731 91 57 2.0 7.0 0.00 0.00 0.00 60 1009.3
20260508194659 92 99 2.0 7.0 0.00 0.00 0.00 60 1009.3
20260508193627 94 29 2.0 7.0 0.00 0.00 0.00 58 1009.3
20260508192626 93 1 1.0 3.0 0.00 0.00 0.00 52 1009.6
20260508191625 92 193 1.0 5.0 0.00 0.00 0.00 55 1009.6
20260508190624 93 320 2.0 8.0 0.00 0.00 0.00 54 1010.0
20260508185521 92 251 1.0 6.0 0.00 0.00 0.00 55 1010.3
20260508184520 92 284 1.0 7.0 0.00 0.00 0.00 55 1010.3
20260508183519 91 315 1.0 4.0 0.00 0.00 0.00 56 1010.6
20260508182518 91 308 1.0 4.0 0.00 0.00 0.00 57 1010.6